マクノート彗星

C/2011 L2 ( McNaught )

English version
Home page
Updated on January 22, 2012

---------------------------------------------------------------------

・ プロフィール

発見日 2011年6月2日
発見光度 18.1等
発見者 Robert H. McNaught (Siding Spring)

・ 写真集

・ 軌道要素

Epoch 2011 Nov. 15.0 TT = JDT 2455880.5
T 2011 Nov. 1.27614 TT                                  MPC
q   1.9434430            (2000.0)            P               Q
z  -0.0009134      Peri.  257.02970     -0.03189014     -0.68527376
 +/-0.0000095      Node   131.34812     +0.07563390     +0.72421550
e   1.0017752      Incl.  104.25739     -0.99662557     +0.07688817
From 40 observations 2011 June 2-2012 Jan. 16, mean residual 0".5.

・ 星図

・ 光度変化

        m1 = 13.0 + 5 logΔ + 10.0 log r(t + 200)

---------------------------------------------------------------------

軌道要素はM.P.E.C. 2012-B23に掲載されたものです。
星図はステラナビゲータ Ver.8 (アストロアーツ) で作成したものです。
光度グラフはComet for Windowsで作成したものです。

---------------------------------------------------------------------

Copyright(C) Seiichi Yoshida (comet@aerith.net). All rights reserved.